TimeCET,TemperatureF,Dew PointF,Humidity,Sea Level PressureIn,VisibilityMPH,Wind Direction,Wind SpeedMPH,Gust SpeedMPH,PrecipitationIn,Events,Conditions,WindDirDegrees,DateUTC
12:00 AM,32,32,98,,0,SSW,34.5,,,Fog,Heavy Fog,200,2014-01-19 23:00:00
12:55 AM,32.0,32.0,100,29.44,0.0,SSW,32.2,-,N/A,Fog,Light Freezing Fog,200,2014-01-19 23:55:00
1:00 AM,32,32,98,,0,SSW,32.2,,,Fog,Heavy Fog,200,2014-01-20 00:00:00
1:55 AM,32.0,32.0,100,29.44,0.0,SSW,28.8,-,N/A,Fog,Fog,200,2014-01-20 00:55:00
2:00 AM,32,32,100,,0,SSW,28.8,,,Fog,Heavy Fog,200,2014-01-20 01:00:00
2:55 AM,32.0,32.0,100,29.47,0.0,SSW,27.6,-,N/A,Fog,Fog,200,2014-01-20 01:55:00
3:00 AM,32,32,100,,0,SSW,27.6,,,Fog,Heavy Fog,200,2014-01-20 02:00:00
3:55 AM,32.0,32.0,100,29.47,0.0,SSW,23.0,-,N/A,Fog,Fog,200,2014-01-20 02:55:00
4:00 AM,32,32,100,,0,SSW,23.0,,,Fog,Heavy Fog,200,2014-01-20 03:00:00
4:55 AM,32.0,32.0,100,29.47,0.0,SSW,23.0,-,N/A,Fog,Fog,200,2014-01-20 03:55:00
5:00 AM,32,32,100,,0,SSW,23.0,,,Fog,Heavy Fog,200,2014-01-20 04:00:00
5:55 AM,32.0,32.0,100,29.47,0.0,SSW,20.7,-,N/A,Fog,Fog,200,2014-01-20 04:55:00
6:00 AM,32,32,100,,0,SSW,20.7,,,Fog,Heavy Fog,200,2014-01-20 05:00:00
6:55 AM,32.0,32.0,100,29.47,0.0,SSW,15.0,-,N/A,Fog,Fog,200,2014-01-20 05:55:00
7:00 AM,32,32,100,,0,SSW,15.0,,,Fog,Heavy Fog,200,2014-01-20 06:00:00
7:55 AM,32.0,32.0,100,29.47,0.0,SSW,13.8,-,N/A,Fog,Fog,200,2014-01-20 06:55:00
8:00 AM,32,32,100,,0,SSW,13.8,,,Fog,Heavy Fog,200,2014-01-20 07:00:00
8:55 AM,32.0,32.0,100,29.50,0.1,SSW,5.8,-,N/A,Fog,Fog,200,2014-01-20 07:55:00
9:00 AM,32,32,100,,0,SSW,5.8,,,Fog,Heavy Fog,200,2014-01-20 08:00:00
9:55 AM,32.0,32.0,100,29.50,0.2,Calm,Calm,-,N/A,Fog,Fog,0,2014-01-20 08:55:00
10:00 AM,33,33,98,,0,Calm,Calm,,,Fog,Heavy Fog,,2014-01-20 09:00:00
10:55 AM,32.0,32.0,100,29.50,0.1,Calm,Calm,-,N/A,Fog,Fog,0,2014-01-20 09:55:00
11:00 AM,33,32,95,,0,Calm,Calm,,,Fog,Heavy Fog,,2014-01-20 10:00:00
11:55 AM,32.0,32.0,100,29.50,0.1,Calm,Calm,-,N/A,Fog,Fog,0,2014-01-20 10:55:00
12:00 PM,33,32,92,,0,Calm,Calm,,,Fog,Heavy Fog,,2014-01-20 11:00:00
12:55 PM,33.8,32.0,93,29.50,0.1,Calm,Calm,-,N/A,Fog,Fog,0,2014-01-20 11:55:00
1:00 PM,33,32,96,,0,Calm,Calm,,,Fog,Heavy Fog,,2014-01-20 12:00:00
1:55 PM,32.0,32.0,100,29.50,0.0,Calm,Calm,-,N/A,Fog,Fog,0,2014-01-20 12:55:00
2:00 PM,33,32,92,,0,Calm,Calm,,,Fog,Heavy Fog,,2014-01-20 13:00:00
2:55 PM,32.0,30.2,93,29.47,-9999.0,North,20.7,-,N/A,Fog,Fog,10,2014-01-20 13:55:00
3:00 PM,32,31,95,,0,North,20.7,,,Snow,Light Snow,10,2014-01-20 14:00:00
3:55 PM,32.0,30.2,93,29.47,-9999.0,North,20.7,-,N/A,Fog,Fog,10,2014-01-20 14:55:00
4:00 PM,32,31,93,,0,North,20.7,,,Snow,Light Snow,10,2014-01-20 15:00:00
4:55 PM,32.0,30.2,93,29.47,-9999.0,North,23.0,-,N/A,Fog,Fog,10,2014-01-20 15:55:00
5:00 PM,32,31,92,,0,North,23.0,,,Snow,Light Snow,10,2014-01-20 16:00:00
5:55 PM,32.0,30.2,93,29.47,0.0,North,23.0,-,N/A,Fog,Fog,10,2014-01-20 16:55:00
6:00 PM,32,30,89,,0,North,23.0,,,Fog,Heavy Fog,10,2014-01-20 17:00:00
6:55 PM,32.0,30.2,93,29.47,0.0,North,20.7,-,N/A,Fog,Fog,10,2014-01-20 17:55:00
7:00 PM,32,30,87,,0,North,20.7,,,Fog,Heavy Fog,10,2014-01-20 18:00:00
7:55 PM,32.0,28.4,87,29.47,0.1,North,13.8,-,N/A,Fog,Light Freezing Fog,10,2014-01-20 18:55:00
8:00 PM,32,28,81,,0,North,13.8,,,Fog,Heavy Fog,10,2014-01-20 19:00:00
8:55 PM,30.2,26.6,86,29.47,0.3,North,17.3,-,N/A,Fog,Light Freezing Fog,10,2014-01-20 19:55:00
9:00 PM,31,27,77,,0,North,17.3,,,Fog,Heavy Fog,10,2014-01-20 20:00:00
9:55 PM,30.2,30.2,100,29.50,0.0,North,20.7,-,N/A,Fog,Light Freezing Fog,10,2014-01-20 20:55:00
10:00 PM,30,30,98,,0,North,20.7,,,Fog,Heavy Fog,10,2014-01-20 21:00:00
10:55 PM,30.2,30.2,100,29.50,0.0,North,23.0,-,N/A,Fog,Light Freezing Fog,10,2014-01-20 21:55:00
11:00 PM,30,30,99,,0,North,23.0,,,Fog,Heavy Fog,10,2014-01-20 22:00:00
11:55 PM,28.4,28.4,100,29.47,0.0,North,26.5,-,N/A,Fog,Light Freezing Fog,10,2014-01-20 22:55:00